South Hill, VA

10:45 PM EST on December 12, 2017 (GMT -0500)
Mecklenburg-Brunswick Regional

Weather History for KAVC - January, 2013

Change the Weather History Date:

Sunday, January 20, 2013

  Actual Average (KEMV) Record (KEMV)
Temperature  
Mean Temperature 46 °F -  
Max Temperature 60 °F 45 °F 62 °F (1986)
Min Temperature 32 °F 25 °F 12 °F (2016)
Degree Days  
Heating Degree Days 19    
Moisture  
Dew Point 33 °F    
Average Humidity 63    
Maximum Humidity 87    
Minimum Humidity 39    
Precipitation  
Precipitation 0.00 in - - ()
Sea Level Pressure  
Sea Level Pressure 30.08 in    
Wind  
Wind Speed 7 mph (SW)    
Max Wind Speed 16 mph    
Max Gust Speed 25 mph    
Visibility 10 miles    
Events      
Averages and records for this station are not official NWS values.
T = Trace of Precipitation, MM = Missing Value Source: NWS Daily Summary

Daily Weather History Graph

Daily Weather History Graph

Search for Another Location

Airport or City:

Trip Planner

Search our weather history database for the weather conditions in past years. The results will help you decide how hot, cold, wet, or windy it might be!

Date:

Astronomy

Jan. 20, 2013 Rise Set
Actual Time 7:21 AM EST 5:25 PM EST
Civil Twilight 6:53 AM EST 5:53 PM EST
Nautical Twilight 6:22 AM EST 6:24 PM EST
Astronomical Twilight 5:51 AM EST 6:55 PM EST
Moon 12:24 PM EST (1/20) 1:53 AM EST (1/20)
Length of Visible Light 10h 59m
Length of Day
10h 03m
Waxing Gibbous, 66% of the Moon is Illuminated
Jan 20
Waxing Gibbous
Jan 26
Full
Feb 3
Last Quarter
Feb 10
New
Feb 17
First Quarter

Hourly Weather History & Observations

Time (EST) Temp. Windchill Dew Point Humidity Pressure Visibility Wind Dir Wind Speed Gust Speed Precip Events Conditions
12:18 AM 32.0 °F 24.8 °F 28.4 °F 87% 30.16 in 10.0 mi South 8.1 mph - N/A   Clear
12:40 AM 33.8 °F 27.7 °F 28.4 °F 81% 30.16 in 10.0 mi SSW 6.9 mph - N/A   Clear
12:57 AM 32.0 °F 25.6 °F 28.4 °F 87% 30.15 in 10.0 mi SSW 6.9 mph - N/A   Clear
1:17 AM 32.0 °F 25.6 °F 28.4 °F 87% 30.14 in 10.0 mi SSW 6.9 mph - N/A   Clear
2:17 AM 32.0 °F 25.6 °F 28.4 °F 87% 30.13 in 10.0 mi South 6.9 mph - N/A   Clear
2:37 AM 32.0 °F 26.4 °F 28.4 °F 87% 30.12 in 10.0 mi SSW 5.8 mph - N/A   Clear
2:57 AM 33.8 °F 27.7 °F 30.2 °F 87% 30.11 in 10.0 mi SSW 6.9 mph - N/A   Clear
3:17 AM 33.8 °F 27.7 °F 30.2 °F 87% 30.11 in 10.0 mi SSW 6.9 mph - N/A   Clear
3:37 AM 33.8 °F 28.6 °F 30.2 °F 87% 30.10 in 10.0 mi SSW 5.8 mph - N/A   Clear
3:57 AM 33.8 °F 27.0 °F 30.2 °F 87% 30.09 in 10.0 mi SSW 8.1 mph - N/A   Clear
4:19 AM 35.6 °F 28.6 °F 30.2 °F 81% 30.09 in 10.0 mi SSW 9.2 mph - N/A   Clear
4:39 AM 37.4 °F 31.4 °F 30.2 °F 75% 30.08 in 10.0 mi SSW 8.1 mph - N/A   Clear
4:59 AM 37.4 °F 32.1 °F 30.2 °F 75% 30.08 in 10.0 mi SSW 6.9 mph - N/A   Clear
5:19 AM 37.4 °F 31.4 °F 30.2 °F 75% 30.08 in 10.0 mi SSW 8.1 mph - N/A   Clear
5:39 AM 37.4 °F 32.1 °F 30.2 °F 75% 30.08 in 10.0 mi SSW 6.9 mph - N/A   Clear
6:17 AM 35.6 °F 29.9 °F 30.2 °F 81% 30.07 in 10.0 mi SSW 6.9 mph - N/A   Clear
7:19 AM 33.8 °F 28.6 °F 30.2 °F 87% 30.07 in 10.0 mi SSW 5.8 mph - N/A   Clear
7:40 AM 33.8 °F 27.7 °F 30.2 °F 87% 30.07 in 10.0 mi SSW 6.9 mph - N/A   Clear
7:57 AM 33.8 °F 28.6 °F 30.2 °F 87% 30.07 in 10.0 mi SSW 5.8 mph - N/A   Clear
8:17 AM 35.6 °F 29.2 °F 30.2 °F 81% 30.08 in 10.0 mi SSW 8.1 mph - N/A   Clear
8:37 AM 42.8 °F 37.5 °F 35.6 °F 76% 30.07 in 10.0 mi SW 9.2 mph - N/A   Clear
9:01 AM 44.6 °F 39.7 °F 33.8 °F 66% 30.08 in 10.0 mi SW 9.2 mph 16.1 mph N/A   Clear
9:57 AM 51.8 °F - 35.6 °F 54% 30.09 in 10.0 mi SW 11.5 mph 16.1 mph N/A   Clear
10:19 AM 53.6 °F - 35.6 °F 51% 30.09 in 10.0 mi SW 10.4 mph 17.3 mph N/A   Clear
10:37 AM 53.6 °F - 35.6 °F 51% 30.09 in 10.0 mi SW 10.4 mph 16.1 mph N/A   Clear
11:00 AM 55.4 °F - 35.6 °F 47% 30.08 in 10.0 mi SW 10.4 mph 23.0 mph N/A   Clear
11:18 AM 55.4 °F - 35.6 °F 47% 30.07 in 10.0 mi SW 9.2 mph 18.4 mph N/A   Clear
11:37 AM 57.2 °F - 37.4 °F 48% 30.06 in 10.0 mi WSW 12.7 mph 19.6 mph N/A   Clear
11:57 AM 59.0 °F - 37.4 °F 45% 30.05 in 10.0 mi WSW 13.8 mph 20.7 mph N/A   Clear
12:17 PM 60.8 °F - 37.4 °F 42% 30.04 in 10.0 mi WSW 11.5 mph 19.6 mph N/A   Clear
12:39 PM 60.8 °F - 37.4 °F 42% 30.03 in 10.0 mi WSW 12.7 mph 20.7 mph N/A   Clear
12:59 PM 60.8 °F - 37.4 °F 42% 30.02 in 10.0 mi West 13.8 mph 19.6 mph N/A   Clear
1:17 PM 60.8 °F - 37.4 °F 42% 30.02 in 10.0 mi SW 12.7 mph 17.3 mph N/A   Clear
1:37 PM 60.8 °F - 37.4 °F 42% 30.01 in 10.0 mi West 16.1 mph 20.7 mph N/A   Clear
2:01 PM 60.8 °F - 37.4 °F 42% 30.01 in 10.0 mi West 10.4 mph 25.3 mph N/A   Clear
2:17 PM 60.8 °F - 37.4 °F 42% 30.01 in 10.0 mi WSW 15.0 mph 20.7 mph N/A   Clear
2:37 PM 60.8 °F - 35.6 °F 39% 30.00 in 10.0 mi West 9.2 mph 21.9 mph N/A   Clear
2:57 PM 60.8 °F - 37.4 °F 42% 30.01 in 10.0 mi WSW 13.8 mph 25.3 mph N/A   Clear
3:18 PM 60.8 °F - 37.4 °F 42% 30.00 in 10.0 mi WSW 11.5 mph 21.9 mph N/A   Clear
3:37 PM 60.8 °F - - N/A% 30.00 in 10.0 mi WSW 11.5 mph 18.4 mph N/A   Clear
4:19 PM 60.8 °F - 37.4 °F 42% 30.01 in 10.0 mi SW 8.1 mph - N/A   Clear
4:37 PM 59.0 °F - 37.4 °F 45% 30.02 in 10.0 mi WSW 5.8 mph - N/A   Clear
4:57 PM 57.2 °F - 35.6 °F 44% 30.02 in 10.0 mi WSW 5.8 mph - N/A   Clear
5:20 PM 55.4 °F - 33.8 °F 44% 30.03 in 10.0 mi West 4.6 mph - N/A   Clear
5:37 PM 53.6 °F - 33.8 °F 47% 30.04 in 10.0 mi West 3.5 mph - N/A   Clear
5:59 PM 51.8 °F - 33.8 °F 50% 30.05 in 10.0 mi WNW 3.5 mph - N/A   Clear
6:17 PM 48.2 °F - 30.2 °F 50% 30.06 in 10.0 mi WNW 3.5 mph - N/A   Clear
6:37 PM 48.2 °F - 33.8 °F 58% 30.07 in 10.0 mi West 3.5 mph - N/A   Clear
6:57 PM 48.2 °F - 33.8 °F 58% 30.08 in 10.0 mi West 3.5 mph - N/A   Clear
7:17 PM 48.2 °F - 32.0 °F 54% 30.09 in 10.0 mi West 3.5 mph - N/A   Clear
7:39 PM 48.2 °F - 33.8 °F 58% 30.10 in 10.0 mi West 3.5 mph - N/A   Clear
7:59 PM 48.2 °F - 32.0 °F 54% 30.10 in 10.0 mi West 5.8 mph - N/A   Clear
8:17 PM 48.2 °F - 30.2 °F 50% 30.10 in 10.0 mi West 4.6 mph - N/A   Clear
8:39 PM 46.4 °F 44.3 °F 30.2 °F 53% 30.10 in 10.0 mi West 4.6 mph - N/A   Clear
8:59 PM 44.6 °F 43.1 °F 28.4 °F 53% 30.10 in 10.0 mi West 3.5 mph - N/A   Clear
9:17 PM 44.6 °F - 28.4 °F 53% 30.11 in 10.0 mi Calm Calm - N/A   Clear
9:37 PM 44.6 °F - 28.4 °F 53% 30.12 in 10.0 mi Calm Calm - N/A   Clear
10:20 PM 37.4 °F - 30.2 °F 75% 30.12 in 10.0 mi Calm Calm - N/A   Clear
10:37 PM 35.6 °F - 28.4 °F 75% 30.12 in 10.0 mi Calm Calm - N/A   Clear
10:57 PM 35.6 °F - 30.2 °F 81% 30.13 in 10.0 mi Calm Calm - N/A   Clear
11:19 PM 37.4 °F - 28.4 °F 70% 30.12 in 10.0 mi Calm Calm - N/A   Clear
11:39 PM 33.8 °F - 30.2 °F 87% 30.12 in 10.0 mi Calm Calm - N/A   Clear
11:59 PM 35.6 °F - 28.4 °F 75% 30.11 in 10.0 mi Calm Calm - N/A   Clear